Time,TemperatureF,DewpointF,PressureIn,WindDirection,WindDirectionDegrees,WindSpeedMPH,WindSpeedGustMPH,Humidity,HourlyPrecipIn,Conditions,Clouds,dailyrainin,SoftwareType,DateUTC
2013-03-30 00:02:00,49.0,36.0,-100.00,North,10,2.0,58.0,61,-99.99,,,-99.99,,2013-03-30 04:02:00,
2013-03-30 00:13:00,46.0,30.0,-100.00,North,10,2.0,112.0,55,-99.99,,,-99.99,,2013-03-30 04:13:00,
2013-03-30 00:23:00,57.0,43.0,-100.00,North,10,1.0,60.0,60,-99.99,,,-99.99,,2013-03-30 04:23:00,
2013-03-30 00:33:00,50.0,40.0,-100.00,NNE,15,3.0,41.0,68,-99.99,,,-99.99,,2013-03-30 04:33:00,
2013-03-30 00:43:00,56.0,44.0,-100.00,North,10,2.0,6.0,65,-99.99,,,-99.99,,2013-03-30 04:43:00,
2013-03-30 00:52:00,52.0,40.0,-100.00,NNE,15,0.0,91.0,62,-99.99,,,-99.99,,2013-03-30 04:52:00,
2013-03-30 01:02:00,52.0,41.0,-100.00,North,10,2.0,85.0,65,-99.99,,,-99.99,,2013-03-30 05:02:00,
2013-03-30 01:12:00,52.0,40.0,-100.00,North,10,1.0,67.0,65,-99.99,,,-99.99,,2013-03-30 05:12:00,
2013-03-30 01:22:00,52.0,40.0,-100.00,NNE,15,0.0,2.0,65,-99.99,,,-99.99,,2013-03-30 05:22:00,
2013-03-30 01:32:00,58.0,49.0,-100.00,NNE,15,2.0,18.0,71,-99.99,,,-99.99,,2013-03-30 05:32:00,
2013-03-30 01:42:00,53.0,43.0,-100.00,NNE,15,5.0,97.0,68,-99.99,,,-99.99,,2013-03-30 05:42:00,
2013-03-30 01:52:00,78.0,69.0,-100.00,North,10,1.0,37.0,72,-99.99,,,-99.99,,2013-03-30 05:52:00,
2013-03-30 02:02:00,58.0,50.0,-100.00,NNE,15,4.0,64.0,74,-99.99,,,-99.99,,2013-03-30 06:02:00,
2013-03-30 02:12:00,50.0,42.0,-100.00,North,10,1.0,11.0,75,-99.99,,,-99.99,,2013-03-30 06:12:00,
2013-03-30 02:23:00,46.0,39.0,-100.00,NNE,15,2.0,48.0,76,-99.99,,,-99.99,,2013-03-30 06:23:00,
2013-03-30 02:32:00,52.0,46.0,-100.00,NNE,15,8.0,54.0,78,-99.99,,,-99.99,,2013-03-30 06:32:00,
2013-03-30 02:42:00,49.0,43.0,-100.00,North,10,1.0,47.0,81,-99.99,,,-99.99,,2013-03-30 06:42:00,
2013-03-30 02:52:00,47.0,41.0,-100.00,NNE,15,1.0,39.0,81,-99.99,,,-99.99,,2013-03-30 06:52:00,
2013-03-30 03:02:00,43.0,40.0,-100.00,NNE,15,4.0,75.0,88,-99.99,,,-99.99,,2013-03-30 07:02:00,
2013-03-30 03:12:00,46.0,42.0,-100.00,NNE,15,2.0,45.0,84,-99.99,,,-99.99,,2013-03-30 07:12:00,
2013-03-30 03:22:00,44.0,39.0,-100.00,NNE,15,9.0,59.0,81,-99.99,,,-99.99,,2013-03-30 07:22:00,
2013-03-30 03:32:00,44.0,39.0,-100.00,NNE,15,9.0,59.0,81,-99.99,,,-99.99,,2013-03-30 07:32:00,
2013-03-30 03:42:00,51.0,47.0,-100.00,NNE,15,1.0,49.0,87,-99.99,,,-99.99,,2013-03-30 07:42:00,
2013-03-30 03:52:00,43.0,40.0,-100.00,NNE,15,0.0,6.0,87,-99.99,,,-99.99,,2013-03-30 07:52:00,
2013-03-30 04:02:00,48.0,45.0,-100.00,NNE,15,1.0,36.0,87,-99.99,,,-99.99,,2013-03-30 08:02:00,
2013-03-30 04:12:00,56.0,54.0,-100.00,NNE,15,1.0,67.0,93,-99.99,,,-99.99,,2013-03-30 08:12:00,
2013-03-30 04:22:00,49.0,45.0,-100.00,NNE,15,0.0,95.0,86,-99.99,,,-99.99,,2013-03-30 08:22:00,
2013-03-30 04:32:00,60.0,54.0,-100.00,NNE,20,2.0,42.0,81,-99.99,,,-99.99,,2013-03-30 08:32:00,
2013-03-30 04:42:00,51.0,48.0,-100.00,NNE,20,15.0,69.0,89,-99.99,,,-99.99,,2013-03-30 08:42:00,
2013-03-30 04:52:00,54.0,51.0,-100.00,NNE,20,2.0,44.0,91,-99.99,,,-99.99,,2013-03-30 08:52:00,
2013-03-30 05:02:00,47.0,44.0,-100.00,NNE,25,1.0,4.0,87,-99.99,,,-99.99,,2013-03-30 09:02:00,
2013-03-30 05:12:00,48.0,44.0,-100.00,NNE,25,1.0,22.0,86,-99.99,,,-99.99,,2013-03-30 09:12:00,
2013-03-30 05:22:00,61.0,59.0,-100.00,NNE,25,2.0,52.0,93,-99.99,,,-99.99,,2013-03-30 09:22:00,
2013-03-30 05:33:00,61.0,59.0,-100.00,NNE,25,2.0,52.0,93,-99.99,,,-99.99,,2013-03-30 09:33:00,
2013-03-30 05:43:00,46.0,43.0,-100.00,NNE,20,1.0,98.0,89,-99.99,,,-99.99,,2013-03-30 09:43:00,
2013-03-30 05:53:00,47.0,44.0,-100.00,NNE,25,0.0,34.0,88,-99.99,,,-99.99,,2013-03-30 09:53:00,
2013-03-30 06:03:00,34.0,28.0,-100.00,NNE,25,4.0,21.0,80,-99.99,,,-99.99,,2013-03-30 10:03:00,
2013-03-30 06:13:00,44.0,41.0,-100.00,NNE,25,1.0,30.0,88,-99.99,,,-99.99,,2013-03-30 10:13:00,
2013-03-30 06:23:00,56.0,53.0,-100.00,NNE,25,1.0,19.0,90,-99.99,,,-99.99,,2013-03-30 10:23:00,
2013-03-30 06:33:00,46.0,43.0,-100.00,NNE,20,2.0,14.0,87,-99.99,,,-99.99,,2013-03-30 10:33:00,
2013-03-30 06:42:00,60.0,54.0,-100.00,NNE,25,2.0,12.0,82,-99.99,,,-99.99,,2013-03-30 10:42:00,
2013-03-30 06:52:00,46.0,43.0,-100.00,NNE,25,1.0,103.0,87,-99.99,,,-99.99,,2013-03-30 10:52:00,
2013-03-30 07:04:00,41.0,38.0,-100.00,NNE,25,4.0,23.0,88,-99.99,,,-99.99,,2013-03-30 11:04:00,
2013-03-30 07:12:00,47.0,44.0,-100.00,NNE,25,1.0,5.0,88,-99.99,,,-99.99,,2013-03-30 11:12:00,
2013-03-30 07:23:00,58.0,54.0,-100.00,NNE,25,1.0,28.0,86,-99.99,,,-99.99,,2013-03-30 11:23:00,
2013-03-30 07:33:00,51.0,47.0,-100.00,NNE,30,0.0,28.0,86,-99.99,,,-99.99,,2013-03-30 11:33:00,
2013-03-30 07:42:00,39.0,36.0,-100.00,NNE,30,4.0,30.0,87,-99.99,,,-99.99,,2013-03-30 11:42:00,
2013-03-30 07:52:00,47.0,43.0,-100.00,NNE,30,0.0,49.0,87,-99.99,,,-99.99,,2013-03-30 11:52:00,
2013-03-30 08:02:00,48.0,45.0,-100.00,NNE,30,1.0,54.0,88,-99.99,,,-99.99,,2013-03-30 12:02:00,
2013-03-30 08:13:00,49.0,45.0,-100.00,NNE,30,1.0,14.0,87,-99.99,,,-99.99,,2013-03-30 12:13:00,
2013-03-30 08:23:00,41.0,38.0,-100.00,NNE,30,2.0,47.0,89,-99.99,,,-99.99,,2013-03-30 12:23:00,
2013-03-30 08:33:00,48.0,45.0,-100.00,NNE,30,0.0,37.0,88,-99.99,,,-99.99,,2013-03-30 12:33:00,
2013-03-30 08:42:00,48.0,45.0,-100.00,NE,35,0.0,1.0,88,-99.99,,,-99.99,,2013-03-30 12:42:00,
2013-03-30 08:53:00,49.0,46.0,-100.00,NNE,30,1.0,10.0,89,-99.99,,,-99.99,,2013-03-30 12:53:00,
2013-03-30 09:02:00,51.0,47.0,-100.00,NE,40,2.0,13.0,88,-99.99,,,-99.99,,2013-03-30 13:02:00,
2013-03-30 09:12:00,39.0,36.0,-100.00,NE,35,2.0,38.0,89,-99.99,,,-99.99,,2013-03-30 13:12:00,
2013-03-30 09:23:00,51.0,48.0,-100.00,NE,35,0.0,47.0,88,-99.99,,,-99.99,,2013-03-30 13:23:00,
2013-03-30 09:32:00,50.0,46.0,-100.00,NE,40,0.0,42.0,86,-99.99,,,-99.99,,2013-03-30 13:32:00,
2013-03-30 09:43:00,50.0,45.0,-100.00,NNE,20,0.0,2.0,82,-99.99,,,-99.99,,2013-03-30 13:43:00,
2013-03-30 09:52:00,52.0,46.0,-100.00,NNE,15,1.0,49.0,78,-99.99,,,-99.99,,2013-03-30 13:52:00,
2013-03-30 10:03:00,41.0,34.0,-100.00,NNE,15,1.0,5.0,77,-99.99,,,-99.99,,2013-03-30 14:03:00,
2013-03-30 10:12:00,63.0,54.0,-100.00,NNE,15,2.0,6.0,72,-99.99,,,-99.99,,2013-03-30 14:12:00,
2013-03-30 10:23:00,47.0,35.0,-100.00,North,10,3.0,6.0,63,-99.99,,,-99.99,,2013-03-30 14:23:00,
2013-03-30 10:32:00,59.0,44.0,-100.00,North,10,1.0,6.0,59,-99.99,,,-99.99,,2013-03-30 14:32:00,
2013-03-30 10:42:00,70.0,52.0,-100.00,North,10,2.0,67.0,54,-99.99,,,-99.99,,2013-03-30 14:42:00,
2013-03-30 10:52:00,59.0,42.0,-100.00,North,10,3.0,45.0,53,-99.99,,,-99.99,,2013-03-30 14:52:00,
2013-03-30 11:03:00,59.0,40.0,-100.00,NNE,15,4.0,9.0,48,-99.99,,,-99.99,,2013-03-30 15:03:00,
2013-03-30 11:12:00,69.0,47.0,-100.00,North,10,6.0,9.0,44,-99.99,,,-99.99,,2013-03-30 15:12:00,
2013-03-30 11:23:00,67.0,39.0,-100.00,NNE,15,6.0,10.0,37,-99.99,,,-99.99,,2013-03-30 15:23:00,
2013-03-30 11:34:00,67.0,35.0,-100.00,NNE,15,4.0,8.0,30,-99.99,,,-99.99,,2013-03-30 15:34:00,
2013-03-30 11:43:00,70.0,36.0,-100.00,North,10,4.0,13.0,28,-99.99,,,-99.99,,2013-03-30 15:43:00,
2013-03-30 11:52:00,68.0,32.0,-100.00,North,10,5.0,39.0,26,-99.99,,,-99.99,,2013-03-30 15:52:00,
2013-03-30 12:04:00,69.0,33.0,-100.00,North,10,4.0,9.0,26,-99.99,,,-99.99,,2013-03-30 16:04:00,
2013-03-30 12:13:00,67.0,30.0,-100.00,North,10,8.0,11.0,25,-99.99,,,-99.99,,2013-03-30 16:13:00,
2013-03-30 12:23:00,69.0,30.0,-100.00,North,10,7.0,92.0,23,-99.99,,,-99.99,,2013-03-30 16:23:00,
2013-03-30 12:33:00,77.0,38.0,-100.00,North,10,10.0,57.0,24,-99.99,,,-99.99,,2013-03-30 16:33:00,
2013-03-30 12:43:00,71.0,33.0,-100.00,North,10,5.0,16.0,25,-99.99,,,-99.99,,2013-03-30 16:43:00,
2013-03-30 12:52:00,73.0,35.0,-100.00,North,10,6.0,11.0,25,-99.99,,,-99.99,,2013-03-30 16:52:00,
2013-03-30 13:02:00,72.0,37.0,-100.00,North,10,5.0,34.0,28,-99.99,,,-99.99,,2013-03-30 17:02:00,
2013-03-30 13:13:00,74.0,36.0,-100.00,North,10,2.0,13.0,25,-99.99,,,-99.99,,2013-03-30 17:13:00,
2013-03-30 13:23:00,72.0,35.0,-100.00,North,10,6.0,11.0,25,-99.99,,,-99.99,,2013-03-30 17:23:00,
2013-03-30 13:33:00,72.0,34.0,-100.00,NNE,15,1.0,9.0,25,-99.99,,,-99.99,,2013-03-30 17:33:00,
2013-03-30 13:42:00,79.0,37.0,-100.00,North,10,1.0,39.0,22,-99.99,,,-99.99,,2013-03-30 17:42:00,
2013-03-30 13:52:00,73.0,33.0,-100.00,North,10,4.0,45.0,23,-99.99,,,-99.99,,2013-03-30 17:52:00,
2013-03-30 14:03:00,73.0,34.0,-100.00,North,10,0.0,13.0,24,-99.99,,,-99.99,,2013-03-30 18:03:00,
2013-03-30 14:13:00,71.0,33.0,-100.00,North,10,6.0,10.0,24,-99.99,,,-99.99,,2013-03-30 18:13:00,
2013-03-30 14:22:00,75.0,36.0,-100.00,North,10,6.0,9.0,24,-99.99,,,-99.99,,2013-03-30 18:22:00,
2013-03-30 14:33:00,73.0,34.0,-100.00,North,10,9.0,21.0,24,-99.99,,,-99.99,,2013-03-30 18:33:00,
2013-03-30 14:42:00,74.0,35.0,-100.00,North,10,5.0,14.0,24,-99.99,,,-99.99,,2013-03-30 18:42:00,
2013-03-30 14:53:00,74.0,35.0,-100.00,North,10,5.0,14.0,24,-99.99,,,-99.99,,2013-03-30 18:53:00,
2013-03-30 15:03:00,73.0,35.0,-100.00,North,10,1.0,7.0,25,-99.99,,,-99.99,,2013-03-30 19:03:00,
2013-03-30 15:13:00,78.0,37.0,-100.00,North,10,4.0,14.0,23,-99.99,,,-99.99,,2013-03-30 19:13:00,
2013-03-30 15:22:00,81.0,37.0,-100.00,North,10,5.0,21.0,21,-99.99,,,-99.99,,2013-03-30 19:22:00,
2013-03-30 15:32:00,81.0,37.0,-100.00,North,10,5.0,21.0,21,-99.99,,,-99.99,,2013-03-30 19:32:00,
2013-03-30 15:42:00,79.0,37.0,-100.00,North,5,9.0,17.0,22,-99.99,,,-99.99,,2013-03-30 19:42:00,
2013-03-30 15:52:00,78.0,36.0,-100.00,North,10,8.0,11.0,22,-99.99,,,-99.99,,2013-03-30 19:52:00,
2013-03-30 16:02:00,77.0,34.0,-100.00,North,10,5.0,13.0,21,-99.99,,,-99.99,,2013-03-30 20:02:00,
2013-03-30 16:12:00,78.0,35.0,-100.00,North,10,7.0,14.0,21,-99.99,,,-99.99,,2013-03-30 20:12:00,
2013-03-30 16:22:00,78.0,35.0,-100.00,North,10,7.0,13.0,21,-99.99,,,-99.99,,2013-03-30 20:22:00,
2013-03-30 16:33:00,78.0,35.0,-100.00,North,10,5.0,14.0,21,-99.99,,,-99.99,,2013-03-30 20:33:00,
2013-03-30 16:42:00,77.0,34.0,-100.00,North,10,7.0,17.0,21,-99.99,,,-99.99,,2013-03-30 20:42:00,
2013-03-30 16:52:00,75.0,33.0,-100.00,North,10,6.0,14.0,21,-99.99,,,-99.99,,2013-03-30 20:52:00,
2013-03-30 17:03:00,76.0,33.0,-100.00,North,10,2.0,9.0,21,-99.99,,,-99.99,,2013-03-30 21:03:00,
2013-03-30 17:13:00,76.0,34.0,-100.00,North,10,7.0,11.0,21,-99.99,,,-99.99,,2013-03-30 21:13:00,
2013-03-30 17:23:00,77.0,34.0,-100.00,North,10,8.0,11.0,21,-99.99,,,-99.99,,2013-03-30 21:23:00,
2013-03-30 17:34:00,74.0,33.0,-100.00,North,10,6.0,16.0,22,-99.99,,,-99.99,,2013-03-30 21:34:00,
2013-03-30 17:43:00,74.0,33.0,-100.00,North,10,6.0,14.0,22,-99.99,,,-99.99,,2013-03-30 21:43:00,
2013-03-30 17:53:00,75.0,32.0,-100.00,North,10,4.0,13.0,21,-99.99,,,-99.99,,2013-03-30 21:53:00,
2013-03-30 18:03:00,75.0,32.0,-100.00,North,10,4.0,14.0,21,-99.99,,,-99.99,,2013-03-30 22:03:00,
2013-03-30 18:13:00,75.0,33.0,-100.00,North,10,4.0,11.0,22,-99.99,,,-99.99,,2013-03-30 22:13:00,
2013-03-30 18:23:00,74.0,33.0,-100.00,North,10,1.0,11.0,22,-99.99,,,-99.99,,2013-03-30 22:23:00,
2013-03-30 18:33:00,74.0,32.0,-100.00,North,10,4.0,7.0,22,-99.99,,,-99.99,,2013-03-30 22:33:00,
2013-03-30 18:43:00,73.0,32.0,-100.00,North,10,3.0,9.0,22,-99.99,,,-99.99,,2013-03-30 22:43:00,
2013-03-30 18:53:00,72.0,31.0,-100.00,North,10,2.0,8.0,22,-99.99,,,-99.99,,2013-03-30 22:53:00,
2013-03-30 19:03:00,71.0,32.0,-100.00,North,10,2.0,11.0,23,-99.99,,,-99.99,,2013-03-30 23:03:00,
2013-03-30 19:13:00,71.0,31.0,-100.00,North,10,4.0,8.0,23,-99.99,,,-99.99,,2013-03-30 23:13:00,
2013-03-30 19:22:00,71.0,31.0,-100.00,North,10,4.0,10.0,23,-99.99,,,-99.99,,2013-03-30 23:22:00,
2013-03-30 19:33:00,70.0,32.0,-100.00,North,10,1.0,8.0,24,-99.99,,,-99.99,,2013-03-30 23:33:00,
2013-03-30 19:42:00,70.0,32.0,-100.00,North,10,4.0,8.0,24,-99.99,,,-99.99,,2013-03-30 23:42:00,
2013-03-30 19:52:00,70.0,32.0,-100.00,North,10,4.0,8.0,24,-99.99,,,-99.99,,2013-03-30 23:52:00,
2013-03-30 20:03:00,69.0,31.0,-100.00,North,10,1.0,4.0,25,-99.99,,,-99.99,,2013-03-31 00:03:00,
2013-03-30 20:12:00,67.0,31.0,-100.00,North,10,0.0,2.0,26,-99.99,,,-99.99,,2013-03-31 00:12:00,
2013-03-30 20:22:00,66.0,32.0,-100.00,North,10,0.0,0.0,28,-99.99,,,-99.99,,2013-03-31 00:22:00,
2013-03-30 20:32:00,65.0,33.0,-100.00,North,10,0.0,1.0,30,-99.99,,,-99.99,,2013-03-31 00:32:00,
2013-03-30 20:43:00,64.0,33.0,-100.00,North,10,0.0,0.0,32,-99.99,,,-99.99,,2013-03-31 00:43:00,
2013-03-30 20:52:00,63.0,34.0,-100.00,North,10,0.0,0.0,34,-99.99,,,-99.99,,2013-03-31 00:52:00,
2013-03-30 21:02:00,62.0,35.0,-100.00,North,10,0.0,0.0,37,-99.99,,,-99.99,,2013-03-31 01:02:00,
2013-03-30 21:12:00,61.0,36.0,-100.00,North,10,0.0,0.0,39,-99.99,,,-99.99,,2013-03-31 01:12:00,
2013-03-30 21:22:00,60.0,36.0,-100.00,North,10,0.0,1.0,41,-99.99,,,-99.99,,2013-03-31 01:22:00,
2013-03-30 21:32:00,59.0,36.0,-100.00,North,10,0.0,0.0,43,-99.99,,,-99.99,,2013-03-31 01:32:00,
2013-03-30 21:42:00,58.0,37.0,-100.00,North,10,0.0,1.0,45,-99.99,,,-99.99,,2013-03-31 01:42:00,
2013-03-30 21:52:00,57.0,37.0,-100.00,North,10,0.0,1.0,47,-99.99,,,-99.99,,2013-03-31 01:52:00,
2013-03-30 22:02:00,56.0,38.0,-100.00,North,10,0.0,0.0,50,-99.99,,,-99.99,,2013-03-31 02:02:00,
2013-03-30 22:13:00,55.0,38.0,-100.00,North,10,0.0,0.0,51,-99.99,,,-99.99,,2013-03-31 02:13:00,
2013-03-30 22:22:00,55.0,39.0,-100.00,North,10,0.0,1.0,54,-99.99,,,-99.99,,2013-03-31 02:22:00,
2013-03-30 22:33:00,54.0,38.0,-100.00,North,10,0.0,0.0,55,-99.99,,,-99.99,,2013-03-31 02:33:00,
2013-03-30 22:43:00,54.0,39.0,-100.00,North,10,1.0,1.0,56,-99.99,,,-99.99,,2013-03-31 02:43:00,
2013-03-30 22:52:00,54.0,39.0,-100.00,North,10,0.0,3.0,57,-99.99,,,-99.99,,2013-03-31 02:52:00,
2013-03-30 23:02:00,54.0,40.0,-100.00,North,10,0.0,1.0,58,-99.99,,,-99.99,,2013-03-31 03:02:00,
2013-03-30 23:13:00,54.0,39.0,-100.00,North,10,0.0,1.0,58,-99.99,,,-99.99,,2013-03-31 03:13:00,
2013-03-30 23:22:00,53.0,39.0,-100.00,North,10,1.0,1.0,59,-99.99,,,-99.99,,2013-03-31 03:22:00,
2013-03-30 23:33:00,53.0,39.0,-100.00,North,10,0.0,1.0,59,-99.99,,,-99.99,,2013-03-31 03:33:00,
2013-03-30 23:43:00,53.0,40.0,-100.00,North,10,0.0,0.0,60,-99.99,,,-99.99,,2013-03-31 03:43:00,
2013-03-30 23:53:00,54.0,40.0,-100.00,North,10,0.0,2.0,59,-99.99,,,-99.99,,2013-03-31 03:53:00,